| time (UTC) | temp C | wind direction | speed KPH | gust KPH | rain 1hr cm | rain 24hr cm | rain mn cm | humidity % | barometer mb |
| 20260505214222 | 10 | 159 | 0.0 | 0.0 | 0.00 | 0.05 | 0.05 | 88 | 1009.9 |
| 20260505213716 | 10 | 159 | 0.0 | 0.0 | 0.00 | 0.05 | 0.05 | 88 | 1009.9 |
| 20260505213217 | 10 | 159 | 0.0 | 0.0 | 0.00 | 0.05 | 0.05 | 88 | 1009.9 |
| 20260505212714 | 10 | 159 | 0.0 | 0.0 | 0.00 | 0.05 | 0.05 | 88 | 1009.9 |
| 20260505212221 | 10 | 159 | 0.0 | 0.0 | 0.00 | 0.05 | 0.05 | 88 | 1010.0 |
| 20260505211717 | 10 | 159 | 0.0 | 0.0 | 0.00 | 0.05 | 0.05 | 88 | 1010.1 |
| 20260505211233 | 10 | 159 | 0.0 | 0.0 | 0.00 | 0.05 | 0.05 | 88 | 1010.1 |
| 20260505210730 | 10 | 159 | 0.0 | 0.0 | 0.00 | 0.05 | 0.05 | 87 | 1010.0 |
| 20260505210226 | 10 | 159 | 0.0 | 0.0 | 0.00 | 0.05 | 0.05 | 88 | 1010.0 |
| 20260505205725 | 11 | 159 | 0.0 | 0.0 | 0.00 | 0.05 | 0.05 | 88 | 1010.0 |
| 20260505205220 | 11 | 159 | 0.0 | 0.0 | 0.00 | 0.05 | 0.05 | 87 | 1010.0 |
| 20260505204736 | 11 | 159 | 0.0 | 0.0 | 0.00 | 0.05 | 0.05 | 87 | 1010.1 |
| 20260505204227 | 11 | 159 | 0.0 | 0.0 | 0.00 | 0.05 | 0.05 | 87 | 1010.2 |
| 20260505203723 | 11 | 159 | 0.0 | 0.0 | 0.00 | 0.05 | 0.05 | 87 | 1010.1 |
| 20260505203220 | 11 | 159 | 0.0 | 0.0 | 0.00 | 0.05 | 0.05 | 87 | 1010.0 |
| 20260505202732 | 11 | 159 | 0.0 | 0.0 | 0.00 | 0.05 | 0.05 | 88 | 1009.9 |
| 20260505202227 | 11 | 159 | 0.0 | 0.0 | 0.00 | 0.05 | 0.05 | 87 | 1009.9 |
| 20260505201724 | 11 | 159 | 0.0 | 0.0 | 0.00 | 0.05 | 0.05 | 87 | 1009.8 |
| 20260505201215 | 11 | 159 | 0.0 | 0.0 | 0.00 | 0.05 | 0.05 | 87 | 1009.8 |
| 20260505200713 | 11 | 159 | 0.0 | 0.0 | 0.00 | 0.05 | 0.05 | 87 | 1009.7 |
| 20260505200224 | 11 | 159 | 0.0 | 0.0 | 0.00 | 0.05 | 0.05 | 87 | 1009.7 |
| 20260505195725 | 11 | 159 | 0.0 | 0.0 | 0.00 | 0.05 | 0.05 | 87 | 1009.6 |
| 20260505195234 | 11 | 159 | 0.0 | 0.0 | 0.00 | 0.05 | 0.05 | 87 | 1009.6 |
| 20260505194729 | 11 | 159 | 0.0 | 0.0 | 0.00 | 0.05 | 0.05 | 87 | 1009.6 |
| 20260505194224 | 11 | 159 | 0.0 | 0.0 | 0.00 | 0.05 | 0.05 | 86 | 1009.5 |
| 20260505193726 | 11 | 159 | 0.0 | 0.0 | 0.00 | 0.05 | 0.05 | 86 | 1009.5 |
| 20260505193225 | 12 | 159 | 0.0 | 0.0 | 0.00 | 0.05 | 0.05 | 86 | 1009.5 |
| 20260505192723 | 12 | 159 | 0.0 | 0.0 | 0.00 | 0.05 | 0.05 | 86 | 1009.5 |
| 20260505192224 | 12 | 161 | 0.0 | 0.0 | 0.00 | 0.05 | 0.05 | 85 | 1009.5 |
| 20260505191723 | 12 | 161 | 0.0 | 0.0 | 0.00 | 0.05 | 0.05 | 85 | 1009.3 |
| 20260505191223 | 12 | 161 | 0.0 | 0.0 | 0.00 | 0.05 | 0.05 | 85 | 1009.2 |
| 20260505190725 | 12 | 161 | 0.0 | 0.0 | 0.00 | 0.05 | 0.05 | 84 | 1009.2 |
| 20260505190221 | 12 | 161 | 0.0 | 0.0 | 0.00 | 0.05 | 0.05 | 84 | 1009.0 |
| 20260505185734 | 13 | 161 | 0.0 | 0.0 | 0.00 | 0.05 | 0.05 | 83 | 1008.9 |
| 20260505185229 | 13 | 161 | 0.0 | 0.0 | 0.00 | 0.05 | 0.05 | 83 | 1008.9 |
| 20260505184715 | 13 | 161 | 0.0 | 0.0 | 0.00 | 0.05 | 0.05 | 82 | 1008.9 |
| 20260505184233 | 13 | 161 | 0.0 | 0.0 | 0.00 | 0.05 | 0.05 | 81 | 1008.9 |
| 20260505183727 | 14 | 161 | 0.0 | 0.0 | 0.00 | 0.05 | 0.05 | 80 | 1008.9 |
| 20260505183229 | 14 | 161 | 0.0 | 0.0 | 0.00 | 0.05 | 0.05 | 79 | 1008.9 |
| 20260505182721 | 14 | 161 | 0.0 | 0.0 | 0.00 | 0.05 | 0.05 | 78 | 1008.9 |
| 20260505182225 | 15 | 161 | 0.0 | 0.0 | 0.00 | 0.05 | 0.05 | 77 | 1008.9 |
| 20260505181725 | 15 | 161 | 0.0 | 8.0 | 0.00 | 0.05 | 0.05 | 77 | 1008.9 |
| 20260505181223 | 15 | 161 | 4.8 | 8.0 | 0.00 | 0.05 | 0.05 | 77 | 1008.9 |
| 20260505180717 | 15 | 161 | 4.8 | 8.0 | 0.00 | 0.05 | 0.05 | 76 | 1009.0 |
| 20260505180227 | 15 | 161 | 0.0 | 0.0 | 0.00 | 0.05 | 0.05 | 76 | 1009.0 |
| 20260505175722 | 15 | 161 | 0.0 | 3.2 | 0.00 | 0.05 | 0.05 | 78 | 1008.9 |
| 20260505175233 | 15 | 161 | 1.6 | 9.7 | 0.00 | 0.05 | 0.05 | 78 | 1008.9 |
| 20260505174730 | 15 | 161 | 4.8 | 9.7 | 0.00 | 0.05 | 0.05 | 79 | 1008.9 |
| 20260505174224 | 15 | 155 | 0.0 | 0.0 | 0.00 | 0.05 | 0.05 | 80 | 1009.0 |
| 20260505173722 | 14 | 155 | 0.0 | 0.0 | 0.00 | 0.05 | 0.05 | 80 | 1009.0 |
| 20260505173215 | 14 | 154 | 0.0 | 0.0 | 0.00 | 0.05 | 0.05 | 80 | 1009.0 |
| 20260505172719 | 14 | 159 | 0.0 | 0.0 | 0.00 | 0.05 | 0.05 | 81 | 1009.0 |
| 20260505172216 | 14 | 146 | 0.0 | 0.0 | 0.00 | 0.05 | 0.05 | 82 | 1008.9 |
| 20260505171734 | 13 | 145 | 0.0 | 0.0 | 0.00 | 0.05 | 0.05 | 82 | 1008.8 |
| 20260505171229 | 13 | 145 | 0.0 | 0.0 | 0.00 | 0.05 | 0.05 | 82 | 1008.7 |
| 20260505170728 | 13 | 144 | 0.0 | 0.0 | 0.00 | 0.05 | 0.05 | 82 | 1008.7 |
| 20260505170229 | 13 | 144 | 0.0 | 0.0 | 0.00 | 0.05 | 0.05 | 82 | 1008.7 |
| 20260505165731 | 13 | 144 | 0.0 | 0.0 | 0.00 | 0.05 | 0.05 | 82 | 1008.8 |
| 20260505165230 | 13 | 143 | 0.0 | 0.0 | 0.00 | 0.05 | 0.05 | 82 | 1008.7 |
| 20260505164730 | 13 | 143 | 0.0 | 0.0 | 0.00 | 0.05 | 0.05 | 82 | 1008.7 |
| 20260505164229 | 13 | 143 | 0.0 | 0.0 | 0.00 | 0.05 | 0.05 | 82 | 1008.7 |
| 20260505163728 | 13 | 143 | 0.0 | 0.0 | 0.00 | 0.05 | 0.05 | 81 | 1008.8 |
| 20260505163227 | 13 | 143 | 0.0 | 0.0 | 0.00 | 0.05 | 0.05 | 81 | 1008.8 |
| 20260505162727 | 13 | 143 | 0.0 | 0.0 | 0.00 | 0.05 | 0.05 | 80 | 1008.9 |
| 20260505162213 | 13 | 142 | 0.0 | 0.0 | 0.00 | 0.05 | 0.05 | 80 | 1008.8 |
| 20260505161716 | 13 | 154 | 0.0 | 3.2 | 0.00 | 0.05 | 0.05 | 80 | 1008.9 |
| 20260505161215 | 13 | 152 | 1.6 | 3.2 | 0.00 | 0.05 | 0.05 | 80 | 1009.0 |
| 20260505160716 | 13 | 147 | 0.0 | 0.0 | 0.00 | 0.00 | 0.05 | 81 | 1008.9 |
| 20260505160229 | 13 | 155 | 0.0 | 0.0 | 0.00 | 0.00 | 0.05 | 80 | 1008.9 |
| 20260505153228 | 13 | 163 | 12.9 | 17.7 | 0.00 | 0.00 | 0.05 | 78 | 1008.9 |
| 20260505152727 | 13 | 153 | 9.7 | 17.7 | 0.00 | 0.00 | 0.05 | 78 | 1008.9 |
| 20260505152229 | 13 | 155 | 1.6 | 11.3 | 0.00 | 0.00 | 0.05 | 78 | 1008.9 |
| 20260505151722 | 13 | 152 | 9.7 | 11.3 | 0.00 | 0.00 | 0.05 | 78 | 1008.8 |
| 20260505151217 | 13 | 153 | 4.8 | 9.7 | 0.00 | 0.00 | 0.05 | 78 | 1008.8 |
| 20260505150715 | 13 | 156 | 0.0 | 1.6 | 0.00 | 0.00 | 0.05 | 78 | 1008.8 |
| 20260505150216 | 13 | 164 | 1.6 | 1.6 | 0.00 | 0.00 | 0.05 | 77 | 1008.9 |
| 20260505140219 | 16 | 148 | 0.0 | 0.0 | 0.00 | 0.00 | 0.05 | 75 | 1009.1 |
| 20260505130224 | 16 | 207 | 1.6 | 3.2 | 0.00 | 0.00 | 0.05 | 75 | 1009.3 |
| 20260505124720 | 15 | 213 | 0.0 | 0.0 | 0.00 | 0.00 | 0.05 | 78 | 1009.6 |
| 20260505124220 | 15 | 213 | 0.0 | 0.0 | 0.00 | 0.00 | 0.05 | 79 | 1009.5 |
| 20260505123720 | 15 | 213 | 0.0 | 0.0 | 0.00 | 0.00 | 0.05 | 79 | 1009.5 |
| 20260505123217 | 15 | 214 | 0.0 | 0.0 | 0.00 | 0.00 | 0.05 | 79 | 1009.5 |
| 20260505122716 | 15 | 214 | 0.0 | 0.0 | 0.00 | 0.00 | 0.05 | 81 | 1009.6 |
| 20260505122218 | 15 | 214 | 0.0 | 0.0 | 0.00 | 0.00 | 0.05 | 81 | 1009.5 |
| 20260505121722 | 15 | 214 | 0.0 | 0.0 | 0.00 | 0.00 | 0.05 | 80 | 1009.5 |
| 20260505121216 | 15 | 214 | 0.0 | 0.0 | 0.00 | 0.00 | 0.05 | 81 | 1009.6 |
| 20260505120732 | 15 | 214 | 0.0 | 0.0 | 0.00 | 0.00 | 0.05 | 82 | 1009.6 |
| 20260505120235 | 15 | 214 | 0.0 | 0.0 | 0.00 | 0.00 | 0.05 | 82 | 1009.6 |
| 20260505115726 | 14 | 214 | 0.0 | 0.0 | 0.00 | 0.00 | 0.05 | 82 | 1009.6 |
| 20260505115221 | 13 | 214 | 0.0 | 0.0 | 0.00 | 0.00 | 0.05 | 83 | 1009.6 |
| 20260505114716 | 13 | 214 | 0.0 | 0.0 | 0.03 | 0.00 | 0.05 | 84 | 1009.7 |
| 20260505114216 | 13 | 214 | 0.0 | 0.0 | 0.03 | 0.00 | 0.05 | 86 | 1009.8 |
| 20260505113715 | 13 | 214 | 0.0 | 0.0 | 0.03 | 0.00 | 0.05 | 86 | 1009.8 |
| 20260505113215 | 13 | 214 | 0.0 | 0.0 | 0.05 | 0.00 | 0.05 | 86 | 1009.8 |
| 20260505112731 | 13 | 214 | 0.0 | 0.0 | 0.05 | 0.00 | 0.05 | 86 | 1009.8 |
| 20260505112234 | 13 | 214 | 0.0 | 0.0 | 0.05 | 0.00 | 0.05 | 86 | 1009.8 |
| 20260505111716 | 13 | 214 | 0.0 | 0.0 | 0.05 | 0.00 | 0.05 | 86 | 1009.7 |
| 20260505111230 | 13 | 214 | 0.0 | 0.0 | 0.05 | 0.00 | 0.05 | 87 | 1009.8 |
| 20260505110729 | 13 | 214 | 0.0 | 0.0 | 0.05 | 0.00 | 0.05 | 87 | 1009.7 |
| 20260505110227 | 13 | 214 | 0.0 | 0.0 | 0.05 | 0.00 | 0.05 | 87 | 1009.8 |
| 20260505101728 | 13 | 214 | 0.0 | 0.0 | 0.00 | 0.00 | 0.03 | 85 | 1010.2 |
| 20260505101231 | 13 | 214 | 0.0 | 0.0 | 0.00 | 0.00 | 0.03 | 86 | 1010.1 |
| 20260505100727 | 13 | 214 | 0.0 | 0.0 | 0.00 | 0.00 | 0.03 | 85 | 1010.1 |
| 20260505100213 | 12 | 214 | 0.0 | 0.0 | 0.00 | 0.00 | 0.03 | 86 | 1010.1 |
| 20260505095714 | 12 | 214 | 0.0 | 0.0 | 0.00 | 0.00 | 0.03 | 86 | 1010.1 |
| 20260505095231 | 12 | 214 | 0.0 | 0.0 | 0.00 | 0.00 | 0.03 | 86 | 1010.1 |
| 20260505094730 | 12 | 214 | 0.0 | 0.0 | 0.00 | 0.00 | 0.03 | 86 | 1010.1 |
| 20260505094227 | 12 | 214 | 0.0 | 0.0 | 0.00 | 0.00 | 0.03 | 87 | 1010.1 |
| 20260505093723 | 12 | 214 | 0.0 | 0.0 | 0.00 | 0.00 | 0.03 | 87 | 1010.0 |
| 20260505093217 | 12 | 214 | 0.0 | 0.0 | 0.00 | 0.00 | 0.03 | 87 | 1010.0 |
| 20260505092713 | 12 | 214 | 0.0 | 0.0 | 0.00 | 0.00 | 0.03 | 87 | 1010.0 |
| 20260505092216 | 12 | 214 | 0.0 | 0.0 | 0.00 | 0.00 | 0.03 | 87 | 1010.0 |
| 20260505091715 | 12 | 214 | 0.0 | 0.0 | 0.00 | 0.00 | 0.03 | 87 | 1010.0 |
| 20260505091231 | 12 | 214 | 0.0 | 0.0 | 0.00 | 0.00 | 0.03 | 87 | 1009.9 |
| 20260505090728 | 12 | 214 | 0.0 | 0.0 | 0.00 | 0.00 | 0.03 | 88 | 1009.9 |
| 20260505090223 | 12 | 214 | 0.0 | 0.0 | 0.00 | 0.00 | 0.03 | 87 | 1009.8 |
| 20260505085718 | 12 | 214 | 0.0 | 0.0 | 0.00 | 0.00 | 0.03 | 88 | 1009.9 |
| 20260505085221 | 12 | 214 | 0.0 | 0.0 | 0.00 | 0.00 | 0.03 | 88 | 1010.0 |
| 20260505084722 | 12 | 214 | 0.0 | 0.0 | 0.00 | 0.00 | 0.03 | 88 | 1010.1 |
| 20260505084235 | 12 | 214 | 0.0 | 0.0 | 0.00 | 0.00 | 0.03 | 88 | 1010.2 |
| 20260505083730 | 12 | 214 | 0.0 | 0.0 | 0.00 | 0.00 | 0.03 | 88 | 1010.1 |
| 20260505083227 | 11 | 214 | 0.0 | 0.0 | 0.03 | 0.00 | 0.03 | 88 | 1010.2 |
| 20260505082724 | 11 | 214 | 0.0 | 0.0 | 0.03 | 0.00 | 0.03 | 88 | 1010.2 |
| 20260505082218 | 11 | 213 | 0.0 | 0.0 | 0.03 | 0.00 | 0.03 | 88 | 1010.3 |
| 20260505081718 | 11 | 214 | 0.0 | 0.0 | 0.03 | 0.00 | 0.03 | 88 | 1010.4 |
| 20260505081231 | 11 | 214 | 0.0 | 0.0 | 0.03 | 0.00 | 0.03 | 88 | 1010.3 |
| 20260505080728 | 11 | 214 | 0.0 | 0.0 | 0.03 | 0.00 | 0.03 | 88 | 1010.3 |
| 20260505080212 | 11 | 214 | 0.0 | 0.0 | 0.03 | 0.00 | 0.03 | 88 | 1010.4 |
| 20260505075732 | 11 | 214 | 0.0 | 0.0 | 0.03 | 0.00 | 0.03 | 88 | 1010.3 |
| 20260505075226 | 11 | 214 | 0.0 | 0.0 | 0.03 | 0.00 | 0.03 | 88 | 1010.4 |
| 20260505074722 | 11 | 214 | 0.0 | 0.0 | 0.03 | 0.00 | 0.03 | 88 | 1010.4 |
| 20260505074217 | 11 | 214 | 0.0 | 0.0 | 0.03 | 0.00 | 0.03 | 88 | 1010.7 |
| 20260505073717 | 11 | 214 | 0.0 | 0.0 | 0.03 | 0.00 | 0.03 | 88 | 1010.8 |
| 20260505073229 | 11 | 214 | 0.0 | 0.0 | 0.03 | 0.00 | 0.03 | 88 | 1010.8 |
| 20260505072726 | 11 | 214 | 0.0 | 0.0 | 0.00 | 0.00 | 0.00 | 88 | 1010.9 |
| 20260505072225 | 11 | 214 | 0.0 | 0.0 | 0.00 | 0.00 | 0.00 | 88 | 1010.9 |
| 20260505071728 | 11 | 214 | 0.0 | 0.0 | 0.00 | 0.00 | 0.00 | 88 | 1010.9 |
| 20260505071225 | 10 | 214 | 0.0 | 0.0 | 0.00 | 0.00 | 0.00 | 88 | 1011.0 |
| 20260505070728 | 10 | 214 | 0.0 | 0.0 | 0.00 | 0.00 | 0.00 | 88 | 1010.9 |
| 20260505070224 | 10 | 214 | 0.0 | 0.0 | 0.00 | 0.00 | 0.00 | 88 | 1011.0 |
| 20260505065735 | 10 | 214 | 0.0 | 0.0 | 0.00 | 0.00 | 0.00 | 88 | 1011.1 |
| 20260505065228 | 10 | 214 | 0.0 | 0.0 | 0.00 | 0.00 | 0.00 | 88 | 1011.1 |
| 20260505064728 | 10 | 214 | 0.0 | 0.0 | 0.00 | 0.00 | 0.00 | 88 | 1011.1 |
| 20260505064223 | 10 | 214 | 0.0 | 0.0 | 0.00 | 0.00 | 0.00 | 88 | 1011.1 |
| 20260505063716 | 10 | 214 | 0.0 | 0.0 | 0.00 | 0.00 | 0.00 | 88 | 1011.2 |
| 20260505063234 | 10 | 214 | 0.0 | 0.0 | 0.00 | 0.00 | 0.00 | 88 | 1011.2 |
| 20260505062715 | 10 | 214 | 0.0 | 0.0 | 0.00 | 0.00 | 0.00 | 88 | 1011.2 |
| 20260505062215 | 10 | 214 | 0.0 | 0.0 | 0.00 | 0.00 | 0.00 | 88 | 1011.3 |
| 20260505061720 | 10 | 214 | 0.0 | 0.0 | 0.00 | 0.00 | 0.00 | 88 | 1011.3 |
| 20260505061235 | 10 | 214 | 0.0 | 0.0 | 0.00 | 0.00 | 0.00 | 88 | 1011.4 |
| 20260505060730 | 10 | 214 | 0.0 | 0.0 | 0.00 | 0.00 | 0.00 | 88 | 1011.4 |
| 20260505060215 | 10 | 214 | 0.0 | 0.0 | 0.00 | 0.00 | 0.00 | 88 | 1011.3 |
| 20260505055733 | 10 | 214 | 0.0 | 0.0 | 0.00 | 0.00 | 0.00 | 88 | 1011.3 |
| 20260505055233 | 10 | 214 | 0.0 | 0.0 | 0.00 | 0.00 | 0.00 | 88 | 1011.4 |
| 20260505054729 | 10 | 214 | 0.0 | 0.0 | 0.00 | 0.00 | 0.00 | 88 | 1011.4 |
| 20260505054228 | 10 | 214 | 0.0 | 0.0 | 0.00 | 0.00 | 0.00 | 88 | 1011.3 |
| 20260505053722 | 9 | 214 | 0.0 | 0.0 | 0.00 | 0.00 | 0.00 | 88 | 1011.3 |
| 20260505053217 | 9 | 214 | 0.0 | 0.0 | 0.00 | 0.00 | 0.00 | 88 | 1011.2 |
| 20260505052714 | 9 | 214 | 0.0 | 0.0 | 0.00 | 0.00 | 0.00 | 88 | 1011.2 |
| 20260505052230 | 9 | 214 | 0.0 | 0.0 | 0.00 | 0.00 | 0.00 | 88 | 1011.1 |
| 20260505051728 | 9 | 214 | 0.0 | 0.0 | 0.00 | 0.00 | 0.00 | 88 | 1011.1 |
| 20260505051222 | 9 | 214 | 0.0 | 0.0 | 0.00 | 0.00 | 0.00 | 88 | 1011.0 |
| 20260505050722 | 9 | 214 | 0.0 | 0.0 | 0.00 | 0.00 | 0.00 | 88 | 1011.1 |
| 20260505050217 | 9 | 214 | 0.0 | 0.0 | 0.00 | 0.00 | 0.00 | 88 | 1011.1 |
| 20260505041726 | 8 | 214 | 0.0 | 0.0 | 0.00 | 0.00 | 0.00 | 88 | 1011.3 |
| 20260505041220 | 8 | 214 | 0.0 | 0.0 | 0.00 | 0.00 | 0.00 | 88 | 1011.3 |
| 20260505040716 | 8 | 214 | 0.0 | 0.0 | 0.00 | 0.00 | 0.00 | 88 | 1011.5 |
| 20260505040212 | 8 | 214 | 0.0 | 0.0 | 0.00 | 0.00 | 0.00 | 88 | 1011.5 |
| 20260505035728 | 8 | 214 | 0.0 | 0.0 | 0.00 | 0.00 | 0.00 | 88 | 1011.3 |
| 20260505035227 | 8 | 214 | 0.0 | 0.0 | 0.00 | 0.00 | 0.00 | 88 | 1011.3 |
| 20260505034726 | 8 | 214 | 0.0 | 0.0 | 0.00 | 0.00 | 0.00 | 88 | 1011.2 |
| 20260505034223 | 8 | 214 | 0.0 | 0.0 | 0.00 | 0.00 | 0.00 | 88 | 1011.2 |
| 20260505033723 | 8 | 214 | 0.0 | 0.0 | 0.00 | 0.00 | 0.00 | 88 | 1011.2 |
| 20260505033221 | 8 | 214 | 0.0 | 0.0 | 0.00 | 0.00 | 0.00 | 88 | 1011.2 |
| 20260505032715 | 8 | 214 | 0.0 | 0.0 | 0.00 | 0.00 | 0.00 | 88 | 1011.2 |
| 20260505032229 | 8 | 214 | 0.0 | 0.0 | 0.00 | 0.00 | 0.00 | 88 | 1011.3 |
| 20260505031724 | 8 | 214 | 0.0 | 0.0 | 0.00 | 0.00 | 0.00 | 88 | 1011.5 |
| 20260505031223 | 8 | 214 | 0.0 | 0.0 | 0.00 | 0.00 | 0.00 | 88 | 1011.5 |
| 20260505030719 | 8 | 214 | 0.0 | 0.0 | 0.00 | 0.00 | 0.00 | 88 | 1011.5 |
| 20260505030233 | 8 | 214 | 0.0 | 0.0 | 0.00 | 0.00 | 0.00 | 88 | 1011.6 |
| 20260505025727 | 8 | 214 | 0.0 | 0.0 | 0.00 | 0.00 | 0.00 | 88 | 1011.5 |
| 20260505025228 | 8 | 214 | 0.0 | 0.0 | 0.00 | 0.00 | 0.00 | 88 | 1011.5 |
| 20260505024723 | 8 | 214 | 0.0 | 0.0 | 0.00 | 0.00 | 0.00 | 88 | 1011.5 |
| 20260505024224 | 8 | 214 | 0.0 | 0.0 | 0.00 | 0.00 | 0.00 | 88 | 1011.6 |
| 20260505023723 | 8 | 214 | 0.0 | 0.0 | 0.00 | 0.00 | 0.00 | 88 | 1011.6 |
| 20260505023218 | 8 | 214 | 0.0 | 0.0 | 0.00 | 0.00 | 0.00 | 88 | 1011.7 |
| 20260505022717 | 8 | 214 | 0.0 | 0.0 | 0.00 | 0.00 | 0.00 | 88 | 1011.6 |
| 20260505022217 | 8 | 214 | 0.0 | 0.0 | 0.00 | 0.00 | 0.00 | 88 | 1011.7 |
| 20260505021715 | 8 | 214 | 0.0 | 0.0 | 0.00 | 0.00 | 0.00 | 88 | 1011.7 |
| 20260505021216 | 8 | 214 | 0.0 | 0.0 | 0.00 | 0.00 | 0.00 | 88 | 1011.9 |
| 20260505020734 | 8 | 214 | 0.0 | 0.0 | 0.00 | 0.00 | 0.00 | 88 | 1011.8 |
| 20260505020225 | 8 | 214 | 0.0 | 0.0 | 0.00 | 0.00 | 0.00 | 88 | 1011.8 |
| 20260505015717 | 8 | 214 | 0.0 | 0.0 | 0.00 | 0.00 | 0.00 | 88 | 1011.9 |
| 20260505015233 | 8 | 214 | 0.0 | 0.0 | 0.00 | 0.00 | 0.00 | 88 | 1012.0 |
| 20260505014727 | 8 | 214 | 0.0 | 0.0 | 0.00 | 0.00 | 0.00 | 88 | 1011.9 |
| 20260505014228 | 8 | 214 | 0.0 | 0.0 | 0.00 | 0.00 | 0.00 | 88 | 1011.9 |
| 20260505013722 | 8 | 214 | 0.0 | 0.0 | 0.00 | 0.00 | 0.00 | 88 | 1011.8 |
| 20260505013216 | 8 | 214 | 0.0 | 0.0 | 0.00 | 0.00 | 0.00 | 88 | 1011.9 |
| 20260505012720 | 8 | 214 | 0.0 | 0.0 | 0.00 | 0.00 | 0.00 | 88 | 1011.9 |
| 20260505012216 | 8 | 214 | 0.0 | 0.0 | 0.00 | 0.00 | 0.00 | 88 | 1011.8 |
| 20260505011715 | 8 | 214 | 0.0 | 0.0 | 0.00 | 0.00 | 0.00 | 88 | 1012.0 |
| 20260505011216 | 8 | 214 | 0.0 | 0.0 | 0.00 | 0.00 | 0.00 | 88 | 1012.1 |
| 20260505010716 | 8 | 214 | 0.0 | 0.0 | 0.00 | 0.00 | 0.00 | 88 | 1012.1 |
| 20260505010220 | 8 | 214 | 0.0 | 0.0 | 0.00 | 0.00 | 0.00 | 88 | 1012.2 |
| 20260505005719 | 8 | 214 | 0.0 | 0.0 | 0.00 | 0.00 | 0.00 | 88 | 1012.2 |
| 20260505005221 | 8 | 214 | 0.0 | 0.0 | 0.00 | 0.00 | 0.00 | 88 | 1012.3 |
| 20260505004724 | 8 | 214 | 0.0 | 0.0 | 0.00 | 0.00 | 0.00 | 88 | 1012.3 |
| 20260505004220 | 8 | 214 | 0.0 | 0.0 | 0.00 | 0.00 | 0.00 | 88 | 1012.5 |
| 20260505003719 | 8 | 214 | 0.0 | 0.0 | 0.00 | 0.00 | 0.00 | 88 | 1012.6 |
| 20260505003217 | 8 | 214 | 0.0 | 0.0 | 0.00 | 0.00 | 0.00 | 88 | 1012.7 |
| 20260505002720 | 8 | 214 | 0.0 | 0.0 | 0.00 | 0.00 | 0.00 | 88 | 1012.7 |
| 20260505002217 | 8 | 214 | 0.0 | 0.0 | 0.00 | 0.00 | 0.00 | 88 | 1012.8 |
| 20260505001716 | 8 | 214 | 0.0 | 0.0 | 0.00 | 0.00 | 0.00 | 88 | 1012.8 |
| 20260505001214 | 8 | 214 | 0.0 | 0.0 | 0.00 | 0.00 | 0.00 | 88 | 1012.9 |
| 20260505000730 | 8 | 214 | 0.0 | 0.0 | 0.00 | 0.00 | 0.00 | 88 | 1012.9 |
| 20260505000218 | 8 | 214 | 0.0 | 0.0 | 0.00 | 0.00 | 0.00 | 88 | 1012.9 |
| 20260504235717 | 8 | 214 | 0.0 | 0.0 | 0.00 | 0.00 | 0.00 | 88 | 1012.9 |
| 20260504235215 | 8 | 214 | 0.0 | 0.0 | 0.00 | 0.00 | 0.00 | 88 | 1013.0 |
| 20260504234719 | 8 | 214 | 0.0 | 0.0 | 0.00 | 0.00 | 0.00 | 88 | 1013.1 |
| 20260504234214 | 9 | 214 | 0.0 | 0.0 | 0.00 | 0.00 | 0.00 | 88 | 1013.1 |
| 20260504233731 | 9 | 214 | 0.0 | 0.0 | 0.00 | 0.00 | 0.00 | 88 | 1013.2 |
| 20260504233226 | 9 | 214 | 0.0 | 0.0 | 0.00 | 0.00 | 0.00 | 88 | 1013.2 |
| 20260504232724 | 9 | 214 | 0.0 | 0.0 | 0.00 | 0.00 | 0.00 | 88 | 1013.1 |
| 20260504232220 | 9 | 214 | 0.0 | 0.0 | 0.00 | 0.00 | 0.00 | 88 | 1013.2 |
| 20260504231723 | 9 | 214 | 0.0 | 0.0 | 0.00 | 0.00 | 0.00 | 88 | 1013.3 |
| 20260504231216 | 9 | 214 | 0.0 | 0.0 | 0.00 | 0.00 | 0.00 | 88 | 1013.5 |
| 20260504230714 | 9 | 214 | 0.0 | 0.0 | 0.00 | 0.00 | 0.00 | 88 | 1013.5 |
| 20260504230218 | 9 | 214 | 0.0 | 0.0 | 0.00 | 0.00 | 0.00 | 88 | 1013.3 |
| 20260504225719 | 9 | 214 | 0.0 | 0.0 | 0.00 | 0.00 | 0.00 | 88 | 1013.5 |
| 20260504225223 | 9 | 214 | 0.0 | 0.0 | 0.00 | 0.00 | 0.00 | 88 | 1013.5 |
| 20260504224726 | 9 | 214 | 0.0 | 0.0 | 0.00 | 0.00 | 0.00 | 88 | 1013.5 |
| 20260504224226 | 9 | 214 | 0.0 | 0.0 | 0.00 | 0.00 | 0.00 | 88 | 1013.4 |
| 20260504223724 | 9 | 214 | 0.0 | 0.0 | 0.00 | 0.00 | 0.00 | 88 | 1013.5 |
| 20260504223223 | 10 | 214 | 0.0 | 0.0 | 0.00 | 0.00 | 0.00 | 88 | 1013.5 |
| 20260504222719 | 10 | 214 | 0.0 | 0.0 | 0.00 | 0.00 | 0.00 | 88 | 1013.5 |
| 20260504222219 | 10 | 214 | 0.0 | 0.0 | 0.00 | 0.00 | 0.00 | 88 | 1013.5 |
| 20260504221732 | 10 | 214 | 0.0 | 0.0 | 0.00 | 0.00 | 0.00 | 88 | 1013.5 |
| 20260504221225 | 10 | 214 | 0.0 | 0.0 | 0.00 | 0.00 | 0.00 | 88 | 1013.6 |
| 20260504220717 | 10 | 214 | 0.0 | 0.0 | 0.00 | 0.00 | 0.00 | 88 | 1013.7 |
| 20260504220231 | 10 | 214 | 0.0 | 0.0 | 0.00 | 0.00 | 0.00 | 88 | 1013.7 |
| 20260504215726 | 10 | 214 | 0.0 | 0.0 | 0.00 | 0.00 | 0.08 | 88 | 1013.7 |
| 20260504215227 | 10 | 214 | 0.0 | 0.0 | 0.00 | 0.00 | 0.08 | 87 | 1013.7 |
| 20260504214728 | 10 | 214 | 0.0 | 0.0 | 0.00 | 0.00 | 0.08 | 87 | 1013.6 |